Location: Houston
(29.7630°N, 95.3630°W)
Time: 06:07:09
(UTC-05:00)

Amateur Radio Satellites - All Passes

Search period start: 30 July 2014 05:37
Search period end: 31 July 2014 05:37
Location: Houston, 29.7630°N, 95.3630°W

Satellite Date Start Highest point End Downlink Frequencies (MHz)
Time Altitude Azimuth
TMSAT-1 30 Jul 05:59:34 06:01:18 12° 295° (WNW) 06:03:02 436.925 FM
PANSAT 30 Jul 06:00:10 06:04:02 71° 176° (S) 06:07:53 not established
KITSAT 1 30 Jul 06:31:35 06:39:42 84° 295° (WNW) 06:47:50 435.175 FM
AO-7 30 Jul 06:35:05 06:43:00 50° 292° (WNW) 06:50:52 29.400 - 29.500 MHz
Hamsat 30 Jul 06:44:47 06:48:39 31° 98° (E) 06:52:31 145.90 MHz
ISS 30 Jul 06:46:35 06:49:43 35° 42° (NE) 06:52:50 145.800 FM
Uosat F 30 Jul 06:48:05 06:51:11 17° 292° (WNW) 06:54:18 435.120 FM
JAS-2 30 Jul 06:56:32 07:01:28 31° 96° (E) 07:06:05 435.800 - 435.900 CW/SSB, 435.910 FM
Saudisat 1A 30 Jul 07:13:57 07:18:15 55° 114° (ESE) 07:22:35 436.775 MHz
MaSat-1 30 Jul 07:24:49 07:30:02 64° 67° (ENE) 07:34:46 437.345 MHz
STRAND 1 30 Jul 07:27:56 07:33:05 88° 77° (ENE) 07:38:15 ?
PANSAT 30 Jul 07:40:19 07:44:09 61° 188° (S) 07:47:58 not established
SO-67 30 Jul 07:55:05 07:58:02 26° 97° (E) 08:00:59 435.3500 MHz FM
Hamsat 30 Jul 08:21:40 08:24:19 16° 290° (WNW) 08:26:59 145.90 MHz
ISS 30 Jul 08:24:25 08:26:09 14° 235° (SW) 08:27:53 145.800 FM
KITSAT 1 30 Jul 08:31:40 08:36:12 16° 313° (NW) 08:40:46 435.175 FM
JAS-2 30 Jul 08:41:59 08:46:20 23° 293° (WNW) 08:50:26 435.800 - 435.900 CW/SSB, 435.910 FM
Saudisat 1A 30 Jul 08:56:21 08:58:08 12° 309° (NW) 08:59:55 436.775 MHz
MaSat-1 30 Jul 09:05:40 09:06:33 10° 262° (W) 09:07:26 437.345 MHz
PANSAT 30 Jul 09:20:50 09:24:05 26° 200° (SSW) 09:27:19 not established
SO-67 30 Jul 09:29:38 09:30:48 11° 289° (WNW) 09:31:58 435.3500 MHz FM
HO-68 30 Jul 09:43:12 09:49:39 36° 99° (E) 09:56:03 435.675 MHz FM
Sapphire 30 Jul 09:47:27 09:51:25 20° 56° (ENE) 09:55:21 437.095 MHz 1200 baud AX-25 AFSK
PCSat 30 Jul 10:19:49 10:24:59 43° 62° (ENE) 10:30:06 145.825 MHz
UKube-1 30 Jul 10:41:11 10:45:33 89° 283° (WNW) 10:49:53 145.840 MHz, 145.915 MHz
Oscar 11 30 Jul 11:24:55 11:29:07 51° 285° (WNW) 11:33:20 145.825 FM, Beacon 2401.500 USB
RS-15 30 Jul 11:25:57 11:29:12 12° 100° (E) 11:32:24 29.354 - 29.394 USB, Beacon 29.352 USB
Sapphire 30 Jul 11:29:52 11:34:57 43° 251° (WSW) 11:40:01 437.095 MHz 1200 baud AX-25 AFSK
HO-68 30 Jul 11:30:56 11:37:09 34° 293° (WNW) 11:43:23 435.675 MHz FM
FUNcube-1 30 Jul 11:50:16 11:54:27 79° 283° (WNW) 11:58:43 145.950 - 145.970 MHz USB
PCSat 30 Jul 12:04:23 12:07:59 18° 255° (WSW) 12:11:34 145.825 MHz
SO-50 30 Jul 12:14:37 12:19:00 68° 115° (ESE) 12:23:28 436.795 FM
Oscar 16 30 Jul 13:04:47 13:07:35 15° 67° (ENE) 13:10:23 437.025 USB, Beacon 2401.1428
RS-15 30 Jul 13:28:37 13:39:51 77° 114° (ESE) 13:50:47 29.354 - 29.394 USB, Beacon 29.352 USB
JAS-1B 30 Jul 13:30:04 13:34:52 16° 56° (ENE) 13:39:50 435.800 - 435.900 CW/SSB
ITAMSAT 1 30 Jul 13:30:35 13:31:51 11° 65° (ENE) 13:33:07 435.822 SSB
Uribyol 2 30 Jul 13:47:09 13:50:40 19° 68° (ENE) 13:54:10 436.500 FM
AO-27 30 Jul 13:47:48 13:51:16 18° 68° (ENE) 13:54:44 436.795 MHz FM
SO-50 30 Jul 13:59:18 14:00:00 10° 311° (NW) 14:00:42 436.795 FM
UOSAT-12 30 Jul 14:06:40 14:11:10 67° 115° (ESE) 14:15:47 437.025 FM, 437.400 FM
Oscar 19 30 Jul 14:12:39 14:17:45 78° 76° (ENE) 14:22:52 437.125 CW, 437.150 USB
AO-Echo 30 Jul 14:16:39 14:21:29 38° 72° (ENE) 14:26:22 ?
Gurwin Techsat 1B 30 Jul 14:19:59 14:22:42 14° 66° (ENE) 14:25:26 435.225 FM
KITSAT 1 30 Jul 14:33:28 14:38:36 18° 48° (NE) 14:43:41 435.175 FM
Oscar 16 30 Jul 14:41:33 14:46:28 49° 260° (W) 14:51:25 437.025 USB, Beacon 2401.1428
ITAMSAT 1 30 Jul 15:05:30 15:10:41 70° 258° (WSW) 15:15:53 435.822 SSB
JAS-1B 30 Jul 15:15:00 15:23:34 79° 74° (ENE) 15:33:21 435.800 - 435.900 CW/SSB
Uribyol 2 30 Jul 15:24:56 15:29:47 40° 261° (W) 15:34:39 436.500 FM
AO-27 30 Jul 15:25:30 15:30:24 41° 260° (W) 15:35:19 436.795 MHz FM
TMSAT-1 30 Jul 15:31:29 15:36:39 57° 74° (ENE) 15:41:50 436.925 FM
AO-7 30 Jul 15:36:34 15:42:47 24° 61° (ENE) 15:49:01 29.400 - 29.500 MHz
RS-15 30 Jul 15:44:30 15:53:11 26° 314° (NW) 16:01:50 29.354 - 29.394 USB, Beacon 29.352 USB
UOSAT-12 30 Jul 15:50:17 15:51:45 11° 310° (NW) 15:53:13 437.025 FM, 437.400 FM
AO-Echo 30 Jul 15:56:26 16:00:16 20° 265° (W) 16:04:07 ?
Gurwin Techsat 1B 30 Jul 15:56:58 16:02:08 55° 259° (W) 16:07:21 435.225 FM
Uosat F 30 Jul 16:15:41 16:20:04 31° 71° (ENE) 16:24:28 435.120 FM
KITSAT 1 30 Jul 16:26:48 16:34:55 87° 246° (WSW) 16:42:57 435.175 FM
JAS-2 30 Jul 17:06:26 17:07:13 10° 61° (ENE) 17:07:59 435.800 - 435.900 CW/SSB, 435.910 FM
JAS-1B 30 Jul 17:09:09 17:14:53 19° 270° (W) 17:21:08 435.800 - 435.900 CW/SSB
TMSAT-1 30 Jul 17:14:34 17:16:48 13° 267° (W) 17:19:03 436.925 FM
OPAL 30 Jul 17:18:38 17:23:43 68° 104° (ESE) 17:28:51 ?
Saudisat 1A 30 Jul 17:25:39 17:30:03 76° 244° (WSW) 17:34:25 436.775 MHz
AO-7 30 Jul 17:26:38 17:34:52 63° 256° (WSW) 17:43:10 29.400 - 29.500 MHz
Hamsat 30 Jul 17:35:16 17:36:11 11° 68° (ENE) 17:37:05 145.90 MHz
Uosat F 30 Jul 17:54:55 17:58:47 22° 263° (W) 18:02:41 435.120 FM
KITSAT 1 30 Jul 18:26:35 18:29:10 12° 259° (W) 18:31:45 435.175 FM
JAS-2 30 Jul 18:43:20 18:51:07 70° 75° (ENE) 18:58:31 435.800 - 435.900 CW/SSB, 435.910 FM
OPAL 30 Jul 19:00:34 19:02:00 11° 297° (WNW) 19:03:25 ?
Hamsat 30 Jul 19:07:42 19:11:41 44° 261° (W) 19:15:42 145.90 MHz
AO-40 30 Jul 19:40:54 04:24:41 51° 182° (S) 20:12:45 Beacon 2401.320
STRAND 1 30 Jul 19:44:55 19:49:51 49° 100° (E) 19:54:44 ?
SO-67 30 Jul 19:54:38 19:58:06 89° 78° (ENE) 20:01:34 435.3500 MHz FM
HO-68 30 Jul 20:08:21 20:11:54 15° 61° (ENE) 20:15:26 435.675 MHz FM
RS-15 30 Jul 20:29:26 20:32:31 11° 30° (NNE) 20:35:35 29.354 - 29.394 USB, Beacon 29.352 USB
JAS-2 30 Jul 20:31:14 20:36:20 19° 266° (W) 20:41:20 435.800 - 435.900 CW/SSB, 435.910 FM
SO-50 30 Jul 20:53:26 20:55:59 14° 52° (NE) 20:58:33 436.795 FM
MaSat-1 30 Jul 21:09:52 21:13:39 88° 108° (ESE) 21:18:09 437.345 MHz
STRAND 1 30 Jul 21:25:49 21:28:33 15° 293° (WNW) 21:31:17 ?
UKube-1 30 Jul 21:30:58 21:34:57 35° 73° (ENE) 21:38:56 145.840 MHz, 145.915 MHz
ISS 30 Jul 21:48:34 21:51:06 20° 127° (SE) 21:53:38 145.800 FM
HO-68 30 Jul 21:51:30 21:58:41 83° 255° (WSW) 22:05:53 435.675 MHz FM
Oscar 11 30 Jul 22:13:47 22:17:58 55° 76° (ENE) 22:22:10 145.825 FM, Beacon 2401.500 USB
SO-50 30 Jul 22:32:09 22:36:50 55° 246° (WSW) 22:41:33 436.795 FM
RS-15 30 Jul 22:37:41 22:48:22 50° 57° (ENE) 22:59:24 29.354 - 29.394 USB, Beacon 29.352 USB
FUNcube-1 30 Jul 22:40:59 22:44:59 37° 74° (ENE) 22:48:55 145.950 - 145.970 MHz USB
UOSAT-12 30 Jul 22:43:58 22:46:06 13° 51° (NE) 22:48:13 437.025 FM, 437.400 FM
UKube-1 30 Jul 23:08:53 23:11:12 14° 265° (W) 23:13:32 145.840 MHz, 145.915 MHz
PCSat 30 Jul 23:15:26 23:17:43 13° 103° (ESE) 23:20:00 145.825 MHz
ISS 30 Jul 23:24:54 23:27:41 24° 320° (NW) 23:30:29 145.800 FM
FUNcube-1 31 Jul 00:19:32 00:21:26 13° 265° (W) 00:23:21 145.950 - 145.970 MHz USB
UOSAT-12 31 Jul 00:21:58 00:26:36 59° 246° (WSW) 00:31:09 437.025 FM, 437.400 FM
Sapphire 31 Jul 00:22:03 00:27:20 60° 111° (ESE) 00:32:39 437.095 MHz 1200 baud AX-25 AFSK
RS-15 31 Jul 00:50:24 01:00:21 39° 253° (WSW) 01:10:44 29.354 - 29.394 USB, Beacon 29.352 USB
PCSat 31 Jul 00:55:13 01:00:31 59° 296° (WNW) 01:05:53 145.825 MHz
Sapphire 31 Jul 02:08:05 02:11:07 15° 306° (NW) 02:14:09 437.095 MHz 1200 baud AX-25 AFSK
PANSAT 31 Jul 02:17:31 02:19:18 13° 154° (SSE) 02:21:05 not established
Oscar 19 31 Jul 02:30:31 02:35:29 46° 100° (E) 02:40:26 437.125 CW, 437.150 USB
AO-Echo 31 Jul 02:31:20 02:34:44 19° 95° (E) 02:38:03 ?
Oscar 16 31 Jul 02:59:07 03:04:18 83° 284° (WNW) 03:09:29 437.025 USB, Beacon 2401.1428
JAS-1B 31 Jul 03:10:12 03:18:06 36° 95° (E) 03:24:49 435.800 - 435.900 CW/SSB
ITAMSAT 1 31 Jul 03:24:35 03:29:45 72° 102° (ESE) 03:34:53 435.822 SSB
Uribyol 2 31 Jul 03:43:30 03:48:37 68° 285° (WNW) 03:53:43 436.500 FM
AO-27 31 Jul 03:44:26 03:49:35 69° 285° (WNW) 03:54:42 436.795 MHz FM
TMSAT-1 31 Jul 03:53:44 03:58:37 37° 99° (E) 04:03:28 436.925 FM
PANSAT 31 Jul 03:55:26 03:59:04 39° 164° (SSE) 04:02:42 not established
AO-Echo 31 Jul 04:09:05 04:13:33 34° 288° (WNW) 04:17:52 ?
Oscar 19 31 Jul 04:11:17 04:14:23 16° 293° (WNW) 04:17:31 437.125 CW, 437.150 USB
Gurwin Techsat 1B 31 Jul 04:19:15 04:24:34 82° 284° (WNW) 04:29:52 435.225 FM
OPAL 31 Jul 04:27:55 04:32:46 61° 73° (ENE) 04:37:39 ?
Uosat F 31 Jul 04:30:36 04:33:31 15° 95° (E) 04:36:24 435.120 FM
KITSAT 1 31 Jul 04:54:47 05:01:01 25° 105° (ESE) 05:07:15 435.175 FM
JAS-1B 31 Jul 05:00:23 05:08:31 40° 294° (WNW) 05:15:30 435.800 - 435.900 CW/SSB
ITAMSAT 1 31 Jul 05:07:55 05:08:34 10° 295° (WNW) 05:09:13 435.822 SSB
